Home > Products > Valid Products > MTR

000
SAHW31 PHFO 030254
MTRITO
METAR PHTO 030253Z 15007KT 10SM CLR 22/20 A3000 RMK AO2 SLP156 60011
T02170200 55012 $




000
SAHW31 PHFO 030254
MTRITO
METAR PHTO 030253Z 15007KT 10SM CLR 22/20 A3000 RMK AO2 SLP156 60011
T02170200 55012 $





000
SAHW31 PHFO 030154
MTRITO
METAR PHTO 030153Z 26012KT 10SM FEW011 BKN070 OVC090 22/19 A2999 RMK
AO2 RAE33 SLP155 P0000 T02170194 $





000
SAHW31 PHFO 030154
MTRITO
METAR PHTO 030153Z 26012KT 10SM FEW011 BKN070 OVC090 22/19 A2999 RMK
AO2 RAE33 SLP155 P0000 T02170194 $




000
SAHW31 PHFO 030154
MTRITO
METAR PHTO 030153Z 26012KT 10SM FEW011 BKN070 OVC090 22/19 A2999 RMK
AO2 RAE33 SLP155 P0000 T02170194 $





000
SAHW31 PHFO 030154
MTRITO
METAR PHTO 030153Z 26012KT 10SM FEW011 BKN070 OVC090 22/19 A2999 RMK
AO2 RAE33 SLP155 P0000 T02170194 $




000
SAHW31 PHFO 030054
MTRITO
METAR PHTO 030053Z 21005KT 10SM -RA FEW014 BKN055 OVC090 21/20 A3002
RMK AO2 SLP163 P0011 T02060200 $




000
SAHW31 PHFO 030054
MTRITO
METAR PHTO 030053Z 21005KT 10SM -RA FEW014 BKN055 OVC090 21/20 A3002
RMK AO2 SLP163 P0011 T02060200 $




000
SAHW31 PHFO 030054
MTRITO
METAR PHTO 030053Z 21005KT 10SM -RA FEW014 BKN055 OVC090 21/20 A3002
RMK AO2 SLP163 P0011 T02060200 $





000
SAHW31 PHFO 030054
MTRITO
METAR PHTO 030053Z 21005KT 10SM -RA FEW014 BKN055 OVC090 21/20 A3002
RMK AO2 SLP163 P0011 T02060200 $





000
SAHW31 PHFO 030031
MTRITO
SPECI PHTO 030030Z 15008KT 10SM -RA FEW007 BKN032 OVC040 21/19 A3003
RMK AO2 P0010 T02060194 $




000
SAHW31 PHFO 030031
MTRITO
SPECI PHTO 030030Z 15008KT 10SM -RA FEW007 BKN032 OVC040 21/19 A3003
RMK AO2 P0010 T02060194 $





000
SAHW31 PHFO 030031
MTRITO
SPECI PHTO 030030Z 15008KT 10SM -RA FEW007 BKN032 OVC040 21/19 A3003
RMK AO2 P0010 T02060194 $




000
SAHW31 PHFO 030031
MTRITO
SPECI PHTO 030030Z 15008KT 10SM -RA FEW007 BKN032 OVC040 21/19 A3003
RMK AO2 P0010 T02060194 $





000
SAHW31 PHFO 022354
MTRITO
METAR PHTO 022353Z 17004KT 2SM RA BR FEW007 BKN020 OVC030 22/21
A3003 RMK AO2 RAB2257 SLP167 P0061 60075 T02170206 10261 20200 57010
$





000
SAHW31 PHFO 022354
MTRITO
METAR PHTO 022353Z 17004KT 2SM RA BR FEW007 BKN020 OVC030 22/21
A3003 RMK AO2 RAB2257 SLP167 P0061 60075 T02170206 10261 20200 57010
$




000
SAHW31 PHFO 022354
MTRITO
METAR PHTO 022353Z 17004KT 2SM RA BR FEW007 BKN020 OVC030 22/21
A3003 RMK AO2 RAB2257 SLP167 P0061 60075 T02170206 10261 20200 57010
$





000
SAHW31 PHFO 022354
MTRITO
METAR PHTO 022353Z 17004KT 2SM RA BR FEW007 BKN020 OVC030 22/21
A3003 RMK AO2 RAB2257 SLP167 P0061 60075 T02170206 10261 20200 57010
$




000
SAHW31 PHFO 022318
MTRITO
SPECI PHTO 022317Z 14004KT 2SM +RA BR SCT014 BKN025 OVC037 22/21
A3003 RMK AO2 RAB2257 P0010 T02170206 $





000
SAHW31 PHFO 022318
MTRITO
SPECI PHTO 022317Z 14004KT 2SM +RA BR SCT014 BKN025 OVC037 22/21
A3003 RMK AO2 RAB2257 P0010 T02170206 $




000
SAHW31 PHFO 022318
MTRITO
SPECI PHTO 022317Z 14004KT 2SM +RA BR SCT014 BKN025 OVC037 22/21
A3003 RMK AO2 RAB2257 P0010 T02170206 $




000
SAHW31 PHFO 022318
MTRITO
SPECI PHTO 022317Z 14004KT 2SM +RA BR SCT014 BKN025 OVC037 22/21
A3003 RMK AO2 RAB2257 P0010 T02170206 $





000
SAHW31 PHFO 022304
MTRITO
SPECI PHTO 022303Z 10008KT 4SM -RA BR SCT021 BKN027 OVC043 22/21
A3003 RMK AO2 RAB2257 P0000 T02220206 $





000
SAHW31 PHFO 022304
MTRITO
SPECI PHTO 022303Z 10008KT 4SM -RA BR SCT021 BKN027 OVC043 22/21
A3003 RMK AO2 RAB2257 P0000 T02220206 $




000
SAHW31 PHFO 022304
MTRITO
SPECI PHTO 022303Z 10008KT 4SM -RA BR SCT021 BKN027 OVC043 22/21
A3003 RMK AO2 RAB2257 P0000 T02220206 $




000
SAHW31 PHFO 022304
MTRITO
SPECI PHTO 022303Z 10008KT 4SM -RA BR SCT021 BKN027 OVC043 22/21
A3003 RMK AO2 RAB2257 P0000 T02220206 $





000
SAHW31 PHFO 022254
MTRITO
METAR PHTO 022253Z 05007KT 10SM FEW019 SCT028 BKN046 23/21 A3003 RMK
AO2 RAE22B39E51 SLP168 P0010 T02330206 $




000
SAHW31 PHFO 022254
MTRITO
METAR PHTO 022253Z 05007KT 10SM FEW019 SCT028 BKN046 23/21 A3003 RMK
AO2 RAE22B39E51 SLP168 P0010 T02330206 $




000
SAHW31 PHFO 022254
MTRITO
METAR PHTO 022253Z 05007KT 10SM FEW019 SCT028 BKN046 23/21 A3003 RMK
AO2 RAE22B39E51 SLP168 P0010 T02330206 $





000
SAHW31 PHFO 022254
MTRITO
METAR PHTO 022253Z 05007KT 10SM FEW019 SCT028 BKN046 23/21 A3003 RMK
AO2 RAE22B39E51 SLP168 P0010 T02330206 $





000
SAHW31 PHFO 022216
MTRITO
SPECI PHTO 022215Z 00000KT 6SM -RA BR BKN036 OVC049 22/21 A3004 RMK
AO2 P0009 T02170206 $




000
SAHW31 PHFO 022216
MTRITO
SPECI PHTO 022215Z 00000KT 6SM -RA BR BKN036 OVC049 22/21 A3004 RMK
AO2 P0009 T02170206 $





000
SAHW31 PHFO 022216
MTRITO
SPECI PHTO 022215Z 00000KT 6SM -RA BR BKN036 OVC049 22/21 A3004 RMK
AO2 P0009 T02170206 $





000
SAHW31 PHFO 022216
MTRITO
SPECI PHTO 022215Z 00000KT 6SM -RA BR BKN036 OVC049 22/21 A3004 RMK
AO2 P0009 T02170206 $




000
SAHW31 PHFO 022156
MTRITO
SPECI PHTO 022155Z 12004KT 2SM RA BR BKN024CB BKN044 OVC055 22/21
A3006 RMK AO2 SFC VIS 6 CB OHD MOV E P0000 T02170206




000
SAHW31 PHFO 022156
MTRITO
SPECI PHTO 022155Z 12004KT 2SM RA BR BKN024CB BKN044 OVC055 22/21
A3006 RMK AO2 SFC VIS 6 CB OHD MOV E P0000 T02170206





000
SAHW31 PHFO 022156
MTRITO
SPECI PHTO 022155Z 12004KT 2SM RA BR BKN024CB BKN044 OVC055 22/21
A3006 RMK AO2 SFC VIS 6 CB OHD MOV E P0000 T02170206




000
SAHW31 PHFO 022156
MTRITO
SPECI PHTO 022155Z 12004KT 2SM RA BR BKN024CB BKN044 OVC055 22/21
A3006 RMK AO2 SFC VIS 6 CB OHD MOV E P0000 T02170206





000
SAHW31 PHFO 022154
MTRITO
METAR PHTO 022153Z 10006KT 6SM RA BR BKN024CB BKN040 OVC080 22/21
A3006 RMK AO2 RAB37 SLP177 CB OHD MOV E P0002 T02170206





000
SAHW31 PHFO 022154
MTRITO
METAR PHTO 022153Z 10006KT 6SM RA BR BKN024CB BKN040 OVC080 22/21
A3006 RMK AO2 RAB37 SLP177 CB OHD MOV E P0002 T02170206




000
SAHW31 PHFO 022154
MTRITO
METAR PHTO 022153Z 10006KT 6SM RA BR BKN024CB BKN040 OVC080 22/21
A3006 RMK AO2 RAB37 SLP177 CB OHD MOV E P0002 T02170206





000
SAHW31 PHFO 022151
MTRITO
SPECI PHTO 022149Z 11009KT 6SM RA BR BKN024CB BKN040 OVC080 22/21
A3006 RMK AO2 RAB37 CB OHD MOV E P0000





000
SAHW31 PHFO 022151
MTRITO
SPECI PHTO 022149Z 11009KT 6SM RA BR BKN024CB BKN040 OVC080 22/21
A3006 RMK AO2 RAB37 CB OHD MOV E P0000





000
SAHW31 PHFO 022151
MTRITO
SPECI PHTO 022149Z 11009KT 6SM RA BR BKN024CB BKN040 OVC080 22/21
A3006 RMK AO2 RAB37 CB OHD MOV E P0000




000
SAHW31 PHFO 022054
MTRITO
METAR PHTO 022053Z 32003KT 10SM FEW022 FEW029 BKN080 26/20 A3006 RMK
AO2 SLP179 60002 T02560200 51006




000
SAHW31 PHFO 022054
MTRITO
METAR PHTO 022053Z 32003KT 10SM FEW022 FEW029 BKN080 26/20 A3006 RMK
AO2 SLP179 60002 T02560200 51006





000
SAHW31 PHFO 021954
MTRITO
METAR PHTO 021953Z VRB04KT 10SM SCT041 BKN050 BKN085 23/22 A3006 RMK
AO2 RAB15E40 SLP178 P0002 T02330217





000
SAHW31 PHFO 021954
MTRITO
METAR PHTO 021953Z VRB04KT 10SM SCT041 BKN050 BKN085 23/22 A3006 RMK
AO2 RAB15E40 SLP178 P0002 T02330217




000
SAHW31 PHFO 021953
MTRITO
SPECI PHTO 021951Z 01004KT 10SM SCT041 SCT050 BKN060 23/22 A3006 RMK
AO2 RAB15E40 P0002





000
SAHW31 PHFO 021953
MTRITO
SPECI PHTO 021951Z 01004KT 10SM SCT041 SCT050 BKN060 23/22 A3006 RMK
AO2 RAB15E40 P0002




000
SAHW31 PHFO 021908
MTRITO
SPECI PHTO 021907Z 05008KT 10SM BKN025CB BKN060 BKN150 23/21 A3005
RMK AO2 CB NE-SE MOV E T02330206




000
SAHW31 PHFO 021908
MTRITO
SPECI PHTO 021907Z 05008KT 10SM BKN025CB BKN060 BKN150 23/21 A3005
RMK AO2 CB NE-SE MOV E T02330206




000
SAHW31 PHFO 021908
MTRITO
SPECI PHTO 021907Z 05008KT 10SM BKN025CB BKN060 BKN150 23/21 A3005
RMK AO2 CB NE-SE MOV E T02330206





000
SAHW31 PHFO 021854
MTRITO
METAR PHTO 021853Z 00000KT 10SM FEW025 SCT055 BKN100 23/21 A3005 RMK
AO2 SLP173 CB DSNT NE-E-SE T02330206





000
SAHW31 PHFO 021854
MTRITO
METAR PHTO 021853Z 00000KT 10SM FEW025 SCT055 BKN100 23/21 A3005 RMK
AO2 SLP173 CB DSNT NE-E-SE T02330206




000
SAHW31 PHFO 021854
MTRITO
METAR PHTO 021853Z 00000KT 10SM FEW025 SCT055 BKN100 23/21 A3005 RMK
AO2 SLP173 CB DSNT NE-E-SE T02330206




000
SAHW31 PHFO 021854
MTRITO
METAR PHTO 021853Z 00000KT 10SM FEW025 SCT055 BKN100 23/21 A3005 RMK
AO2 SLP173 CB DSNT NE-E-SE T02330206





000
SAHW31 PHFO 021754
MTRITO
METAR PHTO 021753Z 24005KT 10SM SCT025 BKN045 BKN070 20/19 A3003 RMK
AO2 SLP167 60018 T02000189 10211 20194 51020




000
SAHW31 PHFO 021754
MTRITO
METAR PHTO 021753Z 24005KT 10SM SCT025 BKN045 BKN070 20/19 A3003 RMK
AO2 SLP167 60018 T02000189 10211 20194 51020





000
SAHW31 PHFO 021754
MTRITO
METAR PHTO 021753Z 24005KT 10SM SCT025 BKN045 BKN070 20/19 A3003 RMK
AO2 SLP167 60018 T02000189 10211 20194 51020




000
SAHW31 PHFO 021754
MTRITO
METAR PHTO 021753Z 24005KT 10SM SCT025 BKN045 BKN070 20/19 A3003 RMK
AO2 SLP167 60018 T02000189 10211 20194 51020





000
SAHW31 PHFO 021654
MTRITO
METAR PHTO 021653Z 24006KT 10SM SCT025 BKN049 BKN070 19/18 A3001 RMK
AO2 SLP162 T01940183




000
SAHW31 PHFO 021654
MTRITO
METAR PHTO 021653Z 24006KT 10SM SCT025 BKN049 BKN070 19/18 A3001 RMK
AO2 SLP162 T01940183





000
SAHW31 PHFO 021654
MTRITO
METAR PHTO 021653Z 24006KT 10SM SCT025 BKN049 BKN070 19/18 A3001 RMK
AO2 SLP162 T01940183




000
SAHW31 PHFO 021654
MTRITO
METAR PHTO 021653Z 24006KT 10SM SCT025 BKN049 BKN070 19/18 A3001 RMK
AO2 SLP162 T01940183





000
SAHW31 PHFO 021554
MTRITO
METAR PHTO 021553Z 23006KT 10SM SCT023 BKN049 OVC070 20/19 A2999 RMK
AO2 SLP155 T02000189





000
SAHW31 PHFO 021554
MTRITO
METAR PHTO 021553Z 23006KT 10SM SCT023 BKN049 OVC070 20/19 A2999 RMK
AO2 SLP155 T02000189




000
SAHW31 PHFO 021454
MTRITO
METAR PHTO 021453Z 23004KT 10SM FEW022 BKN035 BKN049 19/19 A2997 RMK
AO2 RAB12E44 SLP147 P0006 60018 T01940189 55005




000
SAHW31 PHFO 021454
MTRITO
METAR PHTO 021453Z 23004KT 10SM FEW022 BKN035 BKN049 19/19 A2997 RMK
AO2 RAB12E44 SLP147 P0006 60018 T01940189 55005





000
SAHW31 PHFO 021438
MTRITO
SPECI PHTO 021437Z 23004KT 10SM -RA BKN025 BKN036 BKN049 19/19 A2997
RMK AO2 RAB12 P0006 T01940189




000
SAHW31 PHFO 021438
MTRITO
SPECI PHTO 021437Z 23004KT 10SM -RA BKN025 BKN036 BKN049 19/19 A2997
RMK AO2 RAB12 P0006 T01940189





000
SAHW31 PHFO 021438
MTRITO
SPECI PHTO 021437Z 23004KT 10SM -RA BKN025 BKN036 BKN049 19/19 A2997
RMK AO2 RAB12 P0006 T01940189




000
SAHW31 PHFO 021428
MTRITO
SPECI PHTO 021427Z 23004KT 10SM RA FEW027 BKN034 OVC049 20/19 A2997
RMK AO2 RAB12 P0005 T02000189





000
SAHW31 PHFO 021428
MTRITO
SPECI PHTO 021427Z 23004KT 10SM RA FEW027 BKN034 OVC049 20/19 A2997
RMK AO2 RAB12 P0005 T02000189




000
SAHW31 PHFO 021354
MTRITO
METAR PHTO 021353Z 24006KT 10SM BKN027 20/19 A2997 RMK AO2 RAE23
SLP146 P0002 T02000189




000
SAHW31 PHFO 021354
MTRITO
METAR PHTO 021353Z 24006KT 10SM BKN027 20/19 A2997 RMK AO2 RAE23
SLP146 P0002 T02000189





000
SAHW31 PHFO 021354
MTRITO
METAR PHTO 021353Z 24006KT 10SM BKN027 20/19 A2997 RMK AO2 RAE23
SLP146 P0002 T02000189





000
SAHW31 PHFO 021354
MTRITO
METAR PHTO 021353Z 24006KT 10SM BKN027 20/19 A2997 RMK AO2 RAE23
SLP146 P0002 T02000189




000
SAHW31 PHFO 021254
MTRITO
METAR PHTO 021253Z VRB03KT 10SM RA FEW018 BKN034 OVC060 21/20 A2998
RMK AO2 RAB18 SLP149 P0010 T02060200





000
SAHW31 PHFO 021254
MTRITO
METAR PHTO 021253Z VRB03KT 10SM RA FEW018 BKN034 OVC060 21/20 A2998
RMK AO2 RAB18 SLP149 P0010 T02060200




000
SAHW31 PHFO 021245
MTRITO
SPECI PHTO 021244Z 33004KT 10SM -RA SCT022 BKN034 OVC047 20/19 A2998
RMK AO2 RAB18 P0009 T02000194





000
SAHW31 PHFO 021245
MTRITO
SPECI PHTO 021244Z 33004KT 10SM -RA SCT022 BKN034 OVC047 20/19 A2998
RMK AO2 RAB18 P0009 T02000194




000
SAHW31 PHFO 021245
MTRITO
SPECI PHTO 021244Z 33004KT 10SM -RA SCT022 BKN034 OVC047 20/19 A2998
RMK AO2 RAB18 P0009 T02000194




000
SAHW31 PHFO 021245
MTRITO
SPECI PHTO 021244Z 33004KT 10SM -RA SCT022 BKN034 OVC047 20/19 A2998
RMK AO2 RAB18 P0009 T02000194





000
SAHW31 PHFO 021233
MTRITO
SPECI PHTO 021232Z 30005KT 10SM +RA BKN022 BKN031 OVC047 20/19 A2998
RMK AO2 RAB18 P0004 T02000189





000
SAHW31 PHFO 021154
MTRITO
METAR PHTO 021153Z 23003KT 10SM SCT023 20/19 A2999 RMK AO2 RAE30
SLP152 P0003 60024 70088 T02000194 10228 20200 58015





000
SAHW31 PHFO 021154
MTRITO
METAR PHTO 021153Z 23003KT 10SM SCT023 20/19 A2999 RMK AO2 RAE30
SLP152 P0003 60024 70088 T02000194 10228 20200 58015




000
SAHW31 PHFO 021130
MTRITO
SPECI PHTO 021128Z 21006KT 10SM -RA SCT023 BKN029 OVC042 21/20 A3000
RMK AO2 P0003 T02060200




000
SAHW31 PHFO 021130
MTRITO
SPECI PHTO 021128Z 21006KT 10SM -RA SCT023 BKN029 OVC042 21/20 A3000
RMK AO2 P0003 T02060200





000
SAHW31 PHFO 021113
MTRITO
SPECI PHTO 021111Z 21003KT 10SM -RA FEW021 BKN037 OVC055 21/20 A3001
RMK AO2 P0002 T02060200





000
SAHW31 PHFO 021055
MTRITO
METAR PHTO 021053Z 28006KT 10SM -RA FEW013 BKN025 OVC041 21/21 A3001
RMK AO2 RAB0955 SLP162 P0011 T02110206




000
SAHW31 PHFO 021055
MTRITO
METAR PHTO 021053Z 28006KT 10SM -RA FEW013 BKN025 OVC041 21/21 A3001
RMK AO2 RAB0955 SLP162 P0011 T02110206





000
SAHW31 PHFO 021055
MTRITO
METAR PHTO 021053Z 28006KT 10SM -RA FEW013 BKN025 OVC041 21/21 A3001
RMK AO2 RAB0955 SLP162 P0011 T02110206




000
SAHW31 PHFO 021055
MTRITO
METAR PHTO 021053Z 28006KT 10SM -RA FEW013 BKN025 OVC041 21/21 A3001
RMK AO2 RAB0955 SLP162 P0011 T02110206





000
SAHW31 PHFO 021033
MTRITO
SPECI PHTO 021032Z 28008KT 10SM RA SCT014 BKN020 OVC046 21/19 A3002
RMK AO2 RAB0955 P0005 T02060194




000
SAHW31 PHFO 021033
MTRITO
SPECI PHTO 021032Z 28008KT 10SM RA SCT014 BKN020 OVC046 21/19 A3002
RMK AO2 RAB0955 P0005 T02060194





000
SAHW31 PHFO 020954
MTRITO
METAR PHTO 020953Z 33003KT 10SM FEW016 SCT036 BKN045 21/19 A3003 RMK
AO2 RAB01E10 SLP166 P0000 T02110194 402780189




000
SAHW31 PHFO 020954
MTRITO
METAR PHTO 020953Z 33003KT 10SM FEW016 SCT036 BKN045 21/19 A3003 RMK
AO2 RAB01E10 SLP166 P0000 T02110194 402780189





000
SAHW31 PHFO 020855
MTRITO
METAR PHTO 020853Z AUTO 00000KT 10SM FEW020 SCT031 BKN050 21/19
A3003 RMK AO2 RAE32 SLP168 P0006 60010 T02060189 50013 TSNO




000
SAHW31 PHFO 020855
MTRITO
METAR PHTO 020853Z AUTO 00000KT 10SM FEW020 SCT031 BKN050 21/19
A3003 RMK AO2 RAE32 SLP168 P0006 60010 T02060189 50013 TSNO





000
SAHW31 PHFO 020855
MTRITO
METAR PHTO 020853Z AUTO 00000KT 10SM FEW020 SCT031 BKN050 21/19
A3003 RMK AO2 RAE32 SLP168 P0006 60010 T02060189 50013 TSNO





000
SAHW31 PHFO 020855
MTRITO
METAR PHTO 020853Z AUTO 00000KT 10SM FEW020 SCT031 BKN050 21/19
A3003 RMK AO2 RAE32 SLP168 P0006 60010 T02060189 50013 TSNO




000
SAHW31 PHFO 020754
MTRITO
METAR PHTO 020753Z 18005KT 10SM -RA FEW027 BKN035 OVC050 21/19 A3004
RMK AO2 RAB01E20B36 SLP171 P0004 T02060194




000
SAHW31 PHFO 020754
MTRITO
METAR PHTO 020753Z 18005KT 10SM -RA FEW027 BKN035 OVC050 21/19 A3004
RMK AO2 RAB01E20B36 SLP171 P0004 T02060194





000
SAHW31 PHFO 020654
MTRITO
METAR PHTO 020653Z 23003KT 10SM SCT055 21/19 A3003 RMK AO2 SLP166
T02110194




000
SAHW31 PHFO 020654
MTRITO
METAR PHTO 020653Z 23003KT 10SM SCT055 21/19 A3003 RMK AO2 SLP166
T02110194




000
SAHW31 PHFO 020654
MTRITO
METAR PHTO 020653Z 23003KT 10SM SCT055 21/19 A3003 RMK AO2 SLP166
T02110194





000
SAHW31 PHFO 020654
MTRITO
METAR PHTO 020653Z 23003KT 10SM SCT055 21/19 A3003 RMK AO2 SLP166
T02110194





000
SAHW31 PHFO 020554
MTRITO
METAR PHTO 020553Z 35004KT 10SM CLR 23/20 A2999 RMK AO2 SLP155 60026
T02280200 10261 20206 53011





000
SAHW31 PHFO 020554
MTRITO
METAR PHTO 020553Z 35004KT 10SM CLR 23/20 A2999 RMK AO2 SLP155 60026
T02280200 10261 20206 53011




000
SAHW31 PHFO 020454
MTRITO
METAR PHTO 020453Z 34004KT 10SM CLR 22/19 A2998 RMK AO2 SLP149
T02220194





000
SAHW31 PHFO 020454
MTRITO
METAR PHTO 020453Z 34004KT 10SM CLR 22/19 A2998 RMK AO2 SLP149
T02220194





000
SAHW31 PHFO 020454
MTRITO
METAR PHTO 020453Z 34004KT 10SM CLR 22/19 A2998 RMK AO2 SLP149
T02220194




000
SAHW31 PHFO 020454
MTRITO
METAR PHTO 020453Z 34004KT 10SM CLR 22/19 A2998 RMK AO2 SLP149
T02220194




000
SAHW31 PHFO 020354
MTRITO
METAR PHTO 020353Z 00000KT 10SM OVC060 22/19 A2996 RMK AO2 SLP142
T02170194




000
SAHW31 PHFO 020354
MTRITO
METAR PHTO 020353Z 00000KT 10SM OVC060 22/19 A2996 RMK AO2 SLP142
T02170194





000
SAHW31 PHFO 020354
MTRITO
METAR PHTO 020353Z 00000KT 10SM OVC060 22/19 A2996 RMK AO2 SLP142
T02170194





000
SAHW31 PHFO 020354
MTRITO
METAR PHTO 020353Z 00000KT 10SM OVC060 22/19 A2996 RMK AO2 SLP142
T02170194




000
SAHW31 PHFO 020255
MTRITO
METAR PHTO 020253Z 00000KT 10SM SCT036 BKN060 BKN075 22/19 A2996 RMK
AO2 RAE50 TSE0154 SLP144 TS DSNT S P0007 60026 T02170194 50010 $





000
SAHW31 PHFO 020255
MTRITO
METAR PHTO 020253Z 00000KT 10SM SCT036 BKN060 BKN075 22/19 A2996 RMK
AO2 RAE50 TSE0154 SLP144 TS DSNT S P0007 60026 T02170194 50010 $




000
SAHW31 PHFO 020201
MTRITO
SPECI PHTO 020200Z 28008KT 10SM RA FEW010 BKN043 OVC100 22/20 A2996
RMK AO2 TSE0154 TS DSNT S P0001 T02170200 $




000
SAHW31 PHFO 020201
MTRITO
SPECI PHTO 020200Z 28008KT 10SM RA FEW010 BKN043 OVC100 22/20 A2996
RMK AO2 TSE0154 TS DSNT S P0001 T02170200 $





000
SAHW31 PHFO 020154
MTRITO
METAR PHTO 020153Z 30008KT 10SM -TSRA SCT011CB BKN055 OVC095 22/21
A2997 RMK AO2 SLP146 TS S MOV E FRQ OCNL LTGCGIN P0013 T02220206 $





000
SAHW31 PHFO 020154
MTRITO
METAR PHTO 020153Z 30008KT 10SM -TSRA SCT011CB BKN055 OVC095 22/21
A2997 RMK AO2 SLP146 TS S MOV E FRQ OCNL LTGCGIN P0013 T02220206 $




000
SAHW31 PHFO 020154
MTRITO
METAR PHTO 020153Z 30008KT 10SM -TSRA SCT011CB BKN055 OVC095 22/21
A2997 RMK AO2 SLP146 TS S MOV E FRQ OCNL LTGCGIN P0013 T02220206 $





000
SAHW31 PHFO 020154
MTRITO
METAR PHTO 020153Z 30008KT 10SM -TSRA SCT011CB BKN055 OVC095 22/21
A2997 RMK AO2 SLP146 TS S MOV E FRQ OCNL LTGCGIN P0013 T02220206 $




000
SAHW31 PHFO 020145
MTRITO
SPECI PHTO 020144Z 30007KT 10SM -TSRA SCT011CB BKN055 OVC095 22/21
A2995 RMK AO2 TS S MOV E FRQ OCNL LTGCGIN P0012 T02220206 $




000
SAHW31 PHFO 020133
MTRITO
SPECI PHTO 020132Z 25008KT 10SM -TSRA BKN013CB BKN030 OVC060 23/22
A2996 RMK AO2 TS S MOV E FRQ OCNL LTGCGIN P0007 T02280217 $




000
SAHW31 PHFO 020133
MTRITO
SPECI PHTO 020132Z 25008KT 10SM -TSRA BKN013CB BKN030 OVC060 23/22
A2996 RMK AO2 TS S MOV E FRQ OCNL LTGCGIN P0007 T02280217 $





000
SAHW31 PHFO 020116
MTRITO
SPECI PHTO 020115Z 28005KT 10SM -TSRA BKN013CB BKN025 OVC060 23/22
A2995 RMK AO2 TS SW MOV NE FRQ LTGCGIC P0003 T02280217 $




000
SAHW31 PHFO 020116
MTRITO
SPECI PHTO 020115Z 28005KT 10SM -TSRA BKN013CB BKN025 OVC060 23/22
A2995 RMK AO2 TS SW MOV NE FRQ LTGCGIC P0003 T02280217 $





000
SAHW31 PHFO 020116
MTRITO
SPECI PHTO 020115Z 28005KT 10SM -TSRA BKN013CB BKN025 OVC060 23/22
A2995 RMK AO2 TS SW MOV NE FRQ LTGCGIC P0003 T02280217 $





000
SAHW31 PHFO 020116
MTRITO
SPECI PHTO 020115Z 28005KT 10SM -TSRA BKN013CB BKN025 OVC060 23/22
A2995 RMK AO2 TS SW MOV NE FRQ LTGCGIC P0003 T02280217 $




000
SAHW31 PHFO 020054
MTRITO
METAR PHTO 020053Z 05003KT 10SM -TSRA BKN024CB BKN040 OVC080 23/21
A2994 RMK AO2 RAB12 TSB15 SLP136 TS E MOV E FRQ LTGCGIC VIS S 4
P0006 T02330211 $





000
SAHW31 PHFO 020054
MTRITO
METAR PHTO 020053Z 05003KT 10SM -TSRA BKN024CB BKN040 OVC080 23/21
A2994 RMK AO2 RAB12 TSB15 SLP136 TS E MOV E FRQ LTGCGIC VIS S 4
P0006 T02330211 $




000
SAHW31 PHFO 020054
MTRITO
METAR PHTO 020053Z 05003KT 10SM -TSRA BKN024CB BKN040 OVC080 23/21
A2994 RMK AO2 RAB12 TSB15 SLP136 TS E MOV E FRQ LTGCGIC VIS S 4
P0006 T02330211 $




000
SAHW31 PHFO 020054
MTRITO
METAR PHTO 020053Z 05003KT 10SM -TSRA BKN024CB BKN040 OVC080 23/21
A2994 RMK AO2 RAB12 TSB15 SLP136 TS E MOV E FRQ LTGCGIC VIS S 4
P0006 T02330211 $





000
SAHW31 PHFO 020032
MTRITO
SPECI PHTO 020031Z 07005KT 10SM -TSRA BKN024CB BKN060 BKN100 24/21
A2994 RMK AO2 RAB12 TSB15 TS S MOV E FRQ LTGCGIC VIS S 4 T02390211
PNO $




000
SAHW31 PHFO 020032
MTRITO
SPECI PHTO 020031Z 07005KT 10SM -TSRA BKN024CB BKN060 BKN100 24/21
A2994 RMK AO2 RAB12 TSB15 TS S MOV E FRQ LTGCGIC VIS S 4 T02390211
PNO $





000
SAHW31 PHFO 020016
MTRITO
SPECI PHTO 020015Z 09010KT 10SM TSRA BKN024 BKN060 BKN110 25/21
A2993 RMK AO2 RAB12 TSB15 P0000 T02500211 $




000
SAHW31 PHFO 020016
MTRITO
SPECI PHTO 020015Z 09010KT 10SM TSRA BKN024 BKN060 BKN110 25/21
A2993 RMK AO2 RAB12 TSB15 P0000 T02500211 $





000
SAHW31 PHFO 020016
MTRITO
SPECI PHTO 020015Z 09010KT 10SM TSRA BKN024 BKN060 BKN110 25/21
A2993 RMK AO2 RAB12 TSB15 P0000 T02500211 $





000
SAHW31 PHFO 020016
MTRITO
SPECI PHTO 020015Z 09010KT 10SM TSRA BKN024 BKN060 BKN110 25/21
A2993 RMK AO2 RAB12 TSB15 P0000 T02500211 $




000
SAHW31 PHFO 012354
MTRITO
METAR PHTO 012353Z 08013KT 10SM FEW025 SCT030 BKN100 26/21 A2993 RMK
AO2 SLP134 CB DSNT N AND NE 60038 T02610206 10278 20217 56034 $





000
SAHW31 PHFO 012354
MTRITO
METAR PHTO 012353Z 08013KT 10SM FEW025 SCT030 BKN100 26/21 A2993 RMK
AO2 SLP134 CB DSNT N AND NE 60038 T02610206 10278 20217 56034 $




000
SAHW31 PHFO 012354
MTRITO
METAR PHTO 012353Z 08013KT 10SM FEW025 SCT030 BKN100 26/21 A2993 RMK
AO2 SLP134 CB DSNT N AND NE 60038 T02610206 10278 20217 56034 $




000
SAHW31 PHFO 012354
MTRITO
METAR PHTO 012353Z 08013KT 10SM FEW025 SCT030 BKN100 26/21 A2993 RMK
AO2 SLP134 CB DSNT N AND NE 60038 T02610206 10278 20217 56034 $





000
SAHW31 PHFO 012344
MTRITO
SPECI PHTO 012342Z 09014KT 10SM FEW030 SCT100 26/20 A2993 RMK AO2 CB
DSNT N AND NE T02610200 $





000
SAHW31 PHFO 012344
MTRITO
SPECI PHTO 012342Z 09014KT 10SM FEW030 SCT100 26/20 A2993 RMK AO2 CB
DSNT N AND NE T02610200 $




000
SAHW31 PHFO 012344
MTRITO
SPECI PHTO 012342Z 09014KT 10SM FEW030 SCT100 26/20 A2993 RMK AO2 CB
DSNT N AND NE T02610200 $




000
SAHW31 PHFO 012344
MTRITO
SPECI PHTO 012342Z 09014KT 10SM FEW030 SCT100 26/20 A2993 RMK AO2 CB
DSNT N AND NE T02610200 $





000
SAHW31 PHFO 012311
MTRITO
SPECI PHTO 012310Z 11011KT 10SM BKN029 BKN038 BKN100 27/21 A2994 RMK
AO2 CB DSNT N AND NE T02670211 $




000
SAHW31 PHFO 012311
MTRITO
SPECI PHTO 012310Z 11011KT 10SM BKN029 BKN038 BKN100 27/21 A2994 RMK
AO2 CB DSNT N AND NE T02670211 $




000
SAHW31 PHFO 012311
MTRITO
SPECI PHTO 012310Z 11011KT 10SM BKN029 BKN038 BKN100 27/21 A2994 RMK
AO2 CB DSNT N AND NE T02670211 $





000
SAHW31 PHFO 012311
MTRITO
SPECI PHTO 012310Z 11011KT 10SM BKN029 BKN038 BKN100 27/21 A2994 RMK
AO2 CB DSNT N AND NE T02670211 $





000
SAHW31 PHFO 012254
MTRITO
METAR PHTO 012253Z 15006KT 10SM FEW025 SCT100 27/21 A2994 RMK AO2
SLP139 T02720206 $





000
SAHW31 PHFO 012254
MTRITO
METAR PHTO 012253Z 15006KT 10SM FEW025 SCT100 27/21 A2994 RMK AO2
SLP139 T02720206 $




000
SAHW31 PHFO 012254
MTRITO
METAR PHTO 012253Z 15006KT 10SM FEW025 SCT100 27/21 A2994 RMK AO2
SLP139 T02720206 $





000
SAHW31 PHFO 012254
MTRITO
METAR PHTO 012253Z 15006KT 10SM FEW025 SCT100 27/21 A2994 RMK AO2
SLP139 T02720206 $




000
SAHW31 PHFO 012241
MTRITO
SPECI PHTO 012240Z 20007KT 10SM FEW021 SCT026 BKN100 27/20 A2995 RMK
AO2 T02670200 $





000
SAHW31 PHFO 012241
MTRITO
SPECI PHTO 012240Z 20007KT 10SM FEW021 SCT026 BKN100 27/20 A2995 RMK
AO2 T02670200 $




000
SAHW31 PHFO 012225
MTRITO
SPECI PHTO 012224Z 23004KT 10SM SCT021 BKN026 BKN100 27/21 A2996 RMK
AO2 T02670211 $




000
SAHW31 PHFO 012225
MTRITO
SPECI PHTO 012224Z 23004KT 10SM SCT021 BKN026 BKN100 27/21 A2996 RMK
AO2 T02670211 $





000
SAHW31 PHFO 012154
MTRITO
METAR PHTO 012153Z 22005KT 10SM FEW030 SCT040 BKN080 24/21 A2998 RMK
AO2 RAE33 PRESFR SLP151 CB DSNT N AND NE P0007 T02390211 $





000
SAHW31 PHFO 012154
MTRITO
METAR PHTO 012153Z 22005KT 10SM FEW030 SCT040 BKN080 24/21 A2998 RMK
AO2 RAE33 PRESFR SLP151 CB DSNT N AND NE P0007 T02390211 $




000
SAHW31 PHFO 012154
MTRITO
METAR PHTO 012153Z 22005KT 10SM FEW030 SCT040 BKN080 24/21 A2998 RMK
AO2 RAE33 PRESFR SLP151 CB DSNT N AND NE P0007 T02390211 $





000
SAHW31 PHFO 012154
MTRITO
METAR PHTO 012153Z 22005KT 10SM FEW030 SCT040 BKN080 24/21 A2998 RMK
AO2 RAE33 PRESFR SLP151 CB DSNT N AND NE P0007 T02390211 $




000
SAHW31 PHFO 012113
MTRITO
SPECI PHTO 012111Z 29004KT 10SM -RA BKN037 BKN047 OVC060 23/21 A3002
RMK AO2 P0005 T02280211 $




000
SAHW31 PHFO 012113
MTRITO
SPECI PHTO 012111Z 29004KT 10SM -RA BKN037 BKN047 OVC060 23/21 A3002
RMK AO2 P0005 T02280211 $




000
SAHW31 PHFO 012113
MTRITO
SPECI PHTO 012111Z 29004KT 10SM -RA BKN037 BKN047 OVC060 23/21 A3002
RMK AO2 P0005 T02280211 $





000
SAHW31 PHFO 012113
MTRITO
SPECI PHTO 012111Z 29004KT 10SM -RA BKN037 BKN047 OVC060 23/21 A3002
RMK AO2 P0005 T02280211 $





000
SAHW31 PHFO 012054
MTRITO
METAR PHTO 012053Z 00000KT 10SM +RA BKN027 OVC037 22/20 A3003 RMK
AO2 RAB04 SLP168 P0031 60031 T02170200 51012 $





000
SAHW31 PHFO 012054
MTRITO
METAR PHTO 012053Z 00000KT 10SM +RA BKN027 OVC037 22/20 A3003 RMK
AO2 RAB04 SLP168 P0031 60031 T02170200 51012 $




000
SAHW31 PHFO 012023
MTRITO
SPECI PHTO 012022Z 08006KT 10SM -RA FEW014 BKN023 OVC034 22/21 A3004
RMK AO2 RAB04 P0004 T02220206 $





000
SAHW31 PHFO 012023
MTRITO
SPECI PHTO 012022Z 08006KT 10SM -RA FEW014 BKN023 OVC034 22/21 A3004
RMK AO2 RAB04 P0004 T02220206 $




000
SAHW31 PHFO 011954
MTRITO
METAR PHTO 011953Z 11004KT 10SM BKN032 OVC045 26/19 A3002 RMK AO2
SLP164 T02560194 $




000
SAHW31 PHFO 011954
MTRITO
METAR PHTO 011953Z 11004KT 10SM BKN032 OVC045 26/19 A3002 RMK AO2
SLP164 T02560194 $





000
SAHW31 PHFO 011854
MTRITO
METAR PHTO 011853Z 19004KT 10SM BKN046 OVC060 23/19 A3001 RMK AO2
SLP161 T02330194 $





000
SAHW31 PHFO 011854
MTRITO
METAR PHTO 011853Z 19004KT 10SM BKN046 OVC060 23/19 A3001 RMK AO2
SLP161 T02330194 $




000
SAHW31 PHFO 011854
MTRITO
METAR PHTO 011853Z 19004KT 10SM BKN046 OVC060 23/19 A3001 RMK AO2
SLP161 T02330194 $




000
SAHW31 PHFO 011854
MTRITO
METAR PHTO 011853Z 19004KT 10SM BKN046 OVC060 23/19 A3001 RMK AO2
SLP161 T02330194 $





000
SAHW31 PHFO 011754
MTRITO
METAR PHTO 011753Z 20005KT 10SM BKN080 22/18 A2999 RMK AO2 SLP155
60000 T02170183 10217 20189 51019 $




000
SAHW31 PHFO 011754
MTRITO
METAR PHTO 011753Z 20005KT 10SM BKN080 22/18 A2999 RMK AO2 SLP155
60000 T02170183 10217 20189 51019 $





000
SAHW31 PHFO 011754
MTRITO
METAR PHTO 011753Z 20005KT 10SM BKN080 22/18 A2999 RMK AO2 SLP155
60000 T02170183 10217 20189 51019 $




000
SAHW31 PHFO 011754
MTRITO
METAR PHTO 011753Z 20005KT 10SM BKN080 22/18 A2999 RMK AO2 SLP155
60000 T02170183 10217 20189 51019 $





000
SAHW31 PHFO 011654
MTRITO
METAR PHTO 011653Z 23005KT 10SM FEW041 BKN085 19/17 A2998 RMK AO2
SLP150 T01940167 $




000
SAHW31 PHFO 011654
MTRITO
METAR PHTO 011653Z 23005KT 10SM FEW041 BKN085 19/17 A2998 RMK AO2
SLP150 T01940167 $





000
SAHW31 PHFO 011654
MTRITO
METAR PHTO 011653Z 23005KT 10SM FEW041 BKN085 19/17 A2998 RMK AO2
SLP150 T01940167 $





000
SAHW31 PHFO 011654
MTRITO
METAR PHTO 011653Z 23005KT 10SM FEW041 BKN085 19/17 A2998 RMK AO2
SLP150 T01940167 $




000
SAHW31 PHFO 011554
MTRITO
METAR PHTO 011553Z 23004KT 10SM FEW045 19/17 A2996 RMK AO2 SLP144
T01940167 $





000
SAHW31 PHFO 011544
MTRITO
SPECI PHTO 011543Z 24006KT 10SM SCT029 SCT045 20/17 A2996 RMK AO2
T02000167 $




000
SAHW31 PHFO 011544
MTRITO
SPECI PHTO 011543Z 24006KT 10SM SCT029 SCT045 20/17 A2996 RMK AO2
T02000167 $





000
SAHW31 PHFO 011544
MTRITO
SPECI PHTO 011543Z 24006KT 10SM SCT029 SCT045 20/17 A2996 RMK AO2
T02000167 $




000
SAHW31 PHFO 011544
MTRITO
SPECI PHTO 011543Z 24006KT 10SM SCT029 SCT045 20/17 A2996 RMK AO2
T02000167 $





000
SAHW31 PHFO 011523
MTRITO
SPECI PHTO 011522Z 23006KT 10SM BKN029 OVC047 20/17 A2996 RMK AO2
T02000172 $





000
SAHW31 PHFO 011523
MTRITO
SPECI PHTO 011522Z 23006KT 10SM BKN029 OVC047 20/17 A2996 RMK AO2
T02000172 $




000
SAHW31 PHFO 011455
MTRITO
METAR PHTO 011453Z 22005KT 10SM FEW046 BKN070 20/17 A2994 RMK AO2
SLP137 60000 T02000167 55003 $




000
SAHW31 PHFO 011455
MTRITO
METAR PHTO 011453Z 22005KT 10SM FEW046 BKN070 20/17 A2994 RMK AO2
SLP137 60000 T02000167 55003 $





000
SAHW31 PHFO 011455
MTRITO
METAR PHTO 011453Z 22005KT 10SM FEW046 BKN070 20/17 A2994 RMK AO2
SLP137 60000 T02000167 55003 $




000
SAHW31 PHFO 011455
MTRITO
METAR PHTO 011453Z 22005KT 10SM FEW046 BKN070 20/17 A2994 RMK AO2
SLP137 60000 T02000167 55003 $





000
SAHW31 PHFO 011354
MTRITO
METAR PHTO 011353Z 25008KT 10SM BKN044 OVC070 20/17 A2993 RMK AO2
SLP135 T02000172 $





000
SAHW31 PHFO 011354
MTRITO
METAR PHTO 011353Z 25008KT 10SM BKN044 OVC070 20/17 A2993 RMK AO2
SLP135 T02000172 $




000
SAHW31 PHFO 011306
MTRITO
SPECI PHTO 011304Z 23004KT 10SM FEW024 BKN035 OVC065 19/18 A2993 RMK
AO2 T01940178 $





000
SAHW31 PHFO 011306
MTRITO
SPECI PHTO 011304Z 23004KT 10SM FEW024 BKN035 OVC065 19/18 A2993 RMK
AO2 T01940178 $




000
SAHW31 PHFO 011306
MTRITO
SPECI PHTO 011304Z 23004KT 10SM FEW024 BKN035 OVC065 19/18 A2993 RMK
AO2 T01940178 $





000
SAHW31 PHFO 011306
MTRITO
SPECI PHTO 011304Z 23004KT 10SM FEW024 BKN035 OVC065 19/18 A2993 RMK
AO2 T01940178 $




000
SAHW31 PHFO 011254
MTRITO
METAR PHTO 011253Z 19006KT 10SM BKN027 BKN033 OVC040 20/18 A2994 RMK
AO2 RAB24E52 SLP137 P0000 T02000178 $




000
SAHW31 PHFO 011254
MTRITO
METAR PHTO 011253Z 19006KT 10SM BKN027 BKN033 OVC040 20/18 A2994 RMK
AO2 RAB24E52 SLP137 P0000 T02000178 $





000
SAHW31 PHFO 011254
MTRITO
METAR PHTO 011253Z 19006KT 10SM BKN027 BKN033 OVC040 20/18 A2994 RMK
AO2 RAB24E52 SLP137 P0000 T02000178 $




000
SAHW31 PHFO 011254
MTRITO
METAR PHTO 011253Z 19006KT 10SM BKN027 BKN033 OVC040 20/18 A2994 RMK
AO2 RAB24E52 SLP137 P0000 T02000178 $





000
SAHW31 PHFO 011231
MTRITO
SPECI PHTO 011230Z 20007KT 10SM -RA BKN029 OVC045 20/18 A2994 RMK
AO2 RAB24 P0000 T02000178 $





000
SAHW31 PHFO 011231
MTRITO
SPECI PHTO 011230Z 20007KT 10SM -RA BKN029 OVC045 20/18 A2994 RMK
AO2 RAB24 P0000 T02000178 $




000
SAHW31 PHFO 011231
MTRITO
SPECI PHTO 011230Z 20007KT 10SM -RA BKN029 OVC045 20/18 A2994 RMK
AO2 RAB24 P0000 T02000178 $




000
SAHW31 PHFO 011154
MTRITO
METAR PHTO 011153Z 21004KT 10SM SCT041 SCT049 20/18 A2995 RMK AO2
SLP140 60006 70048 T02000178 10228 20194 58008 $





000
SAHW31 PHFO 011154
MTRITO
METAR PHTO 011153Z 21004KT 10SM SCT041 SCT049 20/18 A2995 RMK AO2
SLP140 60006 70048 T02000178 10228 20194 58008 $




000
SAHW31 PHFO 011054
MTRITO
METAR PHTO 011053Z 23005KT 10SM FEW039 SCT050 20/18 A2997 RMK AO2
SLP148 T02000183 $





000
SAHW31 PHFO 011054
MTRITO
METAR PHTO 011053Z 23005KT 10SM FEW039 SCT050 20/18 A2997 RMK AO2
SLP148 T02000183 $




000
SAHW31 PHFO 010954
MTRITO
METAR PHTO 010953Z AUTO 24005KT 10SM FEW042 21/19 A2998 RMK AO2
SLP151 T02060194 402780200 TSNO $




000
SAHW31 PHFO 010954
MTRITO
METAR PHTO 010953Z AUTO 24005KT 10SM FEW042 21/19 A2998 RMK AO2
SLP151 T02060194 402780200 TSNO $




000
SAHW31 PHFO 010954
MTRITO
METAR PHTO 010953Z AUTO 24005KT 10SM FEW042 21/19 A2998 RMK AO2
SLP151 T02060194 402780200 TSNO $





000
SAHW31 PHFO 010854
MTRITO
METAR PHTO 010853Z AUTO 15003KT 10SM CLR 21/20 A2997 RMK AO2 SLP148
60006 T02110200 50000 TSNO $




000
SAHW31 PHFO 010854
MTRITO
METAR PHTO 010853Z AUTO 15003KT 10SM CLR 21/20 A2997 RMK AO2 SLP148
60006 T02110200 50000 TSNO $





000
SAHW31 PHFO 010854
MTRITO
METAR PHTO 010853Z AUTO 15003KT 10SM CLR 21/20 A2997 RMK AO2 SLP148
60006 T02110200 50000 TSNO $




000
SAHW31 PHFO 010854
MTRITO
METAR PHTO 010853Z AUTO 15003KT 10SM CLR 21/20 A2997 RMK AO2 SLP148
60006 T02110200 50000 TSNO $





000
SAHW31 PHFO 010754
MTRITO
METAR PHTO 010753Z 23004KT 10SM BKN036 22/20 A2998 RMK AO2 SLP150
T02170200 $





000
SAHW31 PHFO 010754
MTRITO
METAR PHTO 010753Z 23004KT 10SM BKN036 22/20 A2998 RMK AO2 SLP150
T02170200 $





000
SAHW31 PHFO 010754
MTRITO
METAR PHTO 010753Z 23004KT 10SM BKN036 22/20 A2998 RMK AO2 SLP150
T02170200 $




000
SAHW31 PHFO 010716
MTRITO
SPECI PHTO 010715Z 27005KT 10SM FEW020 SCT025 22/20 A2998 RMK AO2
T02220200 $




000
SAHW31 PHFO 010716
MTRITO
SPECI PHTO 010715Z 27005KT 10SM FEW020 SCT025 22/20 A2998 RMK AO2
T02220200 $




000
SAHW31 PHFO 010716
MTRITO
SPECI PHTO 010715Z 27005KT 10SM FEW020 SCT025 22/20 A2998 RMK AO2
T02220200 $





000
SAHW31 PHFO 010709
MTRITO
SPECI PHTO 010708Z 27006KT 10SM SCT019 BKN025 22/21 A2998 RMK AO2
T02220206 $





000
SAHW31 PHFO 010709
MTRITO
SPECI PHTO 010708Z 27006KT 10SM SCT019 BKN025 22/21 A2998 RMK AO2
T02220206 $




000
SAHW31 PHFO 010709
MTRITO
SPECI PHTO 010708Z 27006KT 10SM SCT019 BKN025 22/21 A2998 RMK AO2
T02220206 $





000
SAHW31 PHFO 010709
MTRITO
SPECI PHTO 010708Z 27006KT 10SM SCT019 BKN025 22/21 A2998 RMK AO2
T02220206 $




000
SAHW31 PHFO 010654
MTRITO
METAR PHTO 010653Z 26009KT 10SM FEW025 22/21 A2999 RMK AO2 RAE24
SLP152 P0006 T02220206 $





000
SAHW31 PHFO 010654
MTRITO
METAR PHTO 010653Z 26009KT 10SM FEW025 22/21 A2999 RMK AO2 RAE24
SLP152 P0006 T02220206 $




000
SAHW31 PHFO 010654
MTRITO
METAR PHTO 010653Z 26009KT 10SM FEW025 22/21 A2999 RMK AO2 RAE24
SLP152 P0006 T02220206 $





000
SAHW31 PHFO 010654
MTRITO
METAR PHTO 010653Z 26009KT 10SM FEW025 22/21 A2999 RMK AO2 RAE24
SLP152 P0006 T02220206 $




000
SAHW31 PHFO 010554
MTRITO
METAR PHTO 010553Z 35007KT 10SM RA SCT031 BKN046 OVC075 23/20 A2997
RMK AO2 RAE41B51 SLP148 P0017 60033 T02280200 10278 20222 53016 $




000
SAHW31 PHFO 010554
MTRITO
METAR PHTO 010553Z 35007KT 10SM RA SCT031 BKN046 OVC075 23/20 A2997
RMK AO2 RAE41B51 SLP148 P0017 60033 T02280200 10278 20222 53016 $




000
SAHW31 PHFO 010554
MTRITO
METAR PHTO 010553Z 35007KT 10SM RA SCT031 BKN046 OVC075 23/20 A2997
RMK AO2 RAE41B51 SLP148 P0017 60033 T02280200 10278 20222 53016 $





000
SAHW31 PHFO 010554
MTRITO
METAR PHTO 010553Z 35007KT 10SM RA SCT031 BKN046 OVC075 23/20 A2997
RMK AO2 RAE41B51 SLP148 P0017 60033 T02280200 10278 20222 53016 $





000
SAHW31 PHFO 010545
MTRITO
SPECI PHTO 010544Z 01005KT 10SM FEW025 BKN046 OVC075 23/21 A2997 RMK
AO2 RAE41 P0017 T02280206 $





000
SAHW31 PHFO 010545
MTRITO
SPECI PHTO 010544Z 01005KT 10SM FEW025 BKN046 OVC075 23/21 A2997 RMK
AO2 RAE41 P0017 T02280206 $




000
SAHW31 PHFO 010545
MTRITO
SPECI PHTO 010544Z 01005KT 10SM FEW025 BKN046 OVC075 23/21 A2997 RMK
AO2 RAE41 P0017 T02280206 $




000
SAHW31 PHFO 010545
MTRITO
SPECI PHTO 010544Z 01005KT 10SM FEW025 BKN046 OVC075 23/21 A2997 RMK
AO2 RAE41 P0017 T02280206 $





000
SAHW31 PHFO 010454
MTRITO
METAR PHTO 010453Z 01005KT 10SM -RA FEW013 BKN019 OVC031 23/21 A2995
RMK AO2 SLP139 OCNL LTGIC OVHD P0014 T02280206 $





000
SAHW31 PHFO 010454
MTRITO
METAR PHTO 010453Z 01005KT 10SM -RA FEW013 BKN019 OVC031 23/21 A2995
RMK AO2 SLP139 OCNL LTGIC OVHD P0014 T02280206 $




000
SAHW31 PHFO 010454
MTRITO
METAR PHTO 010453Z 01005KT 10SM -RA FEW013 BKN019 OVC031 23/21 A2995
RMK AO2 SLP139 OCNL LTGIC OVHD P0014 T02280206 $





000
SAHW31 PHFO 010454
MTRITO
METAR PHTO 010453Z 01005KT 10SM -RA FEW013 BKN019 OVC031 23/21 A2995
RMK AO2 SLP139 OCNL LTGIC OVHD P0014 T02280206 $




000
SAHW31 PHFO 010452
MTRITO
SPECI PHTO 010451Z 02006KT 10SM -RA BKN016 BKN023 OVC031 23/21 A2994
RMK AO2 OCNL LTGIC OVHD P0014 $




000
SAHW31 PHFO 010452
MTRITO
SPECI PHTO 010451Z 02006KT 10SM -RA BKN016 BKN023 OVC031 23/21 A2994
RMK AO2 OCNL LTGIC OVHD P0014 $





000
SAHW31 PHFO 010452
MTRITO
SPECI PHTO 010451Z 02006KT 10SM -RA BKN016 BKN023 OVC031 23/21 A2994
RMK AO2 OCNL LTGIC OVHD P0014 $




000
SAHW31 PHFO 010452
MTRITO
SPECI PHTO 010451Z 02006KT 10SM -RA BKN016 BKN023 OVC031 23/21 A2994
RMK AO2 OCNL LTGIC OVHD P0014 $





000
SAHW31 PHFO 010408
MTRITO
SPECI PHTO 010407Z 02004KT 10SM RA FEW025 SCT065 OVC095 23/21 A2993
RMK AO2 OCNL LTGIC OVHD P0003 T02330211 $





000
SAHW31 PHFO 010408
MTRITO
SPECI PHTO 010407Z 02004KT 10SM RA FEW025 SCT065 OVC095 23/21 A2993
RMK AO2 OCNL LTGIC OVHD P0003 T02330211 $




000
SAHW31 PHFO 010354
MTRITO
METAR PHTO 010353Z 01005KT 10SM RA FEW065 BKN090 OVC110 23/22 A2993
RMK AO2 RAB0257 SLP132 P0002 T02330217 $





000
SAHW31 PHFO 010354
MTRITO
METAR PHTO 010353Z 01005KT 10SM RA FEW065 BKN090 OVC110 23/22 A2993
RMK AO2 RAB0257 SLP132 P0002 T02330217 $





000
SAHW31 PHFO 010354
MTRITO
METAR PHTO 010353Z 01005KT 10SM RA FEW065 BKN090 OVC110 23/22 A2993
RMK AO2 RAB0257 SLP132 P0002 T02330217 $




000
SAHW31 PHFO 010340
MTRITO
SPECI PHTO 010339Z 05007KT 10SM RA SCT021 BKN060 OVC100 24/21 A2992
RMK AO2 RAB0257 P0001 T02390211 $




000
SAHW31 PHFO 010323
MTRITO
SPECI PHTO 010322Z 03007KT 10SM -RA SCT017 BKN025 OVC110 24/21 A2991
RMK AO2 RAB0257 P0000 T02440211 $




000
SAHW31 PHFO 010323
MTRITO
SPECI PHTO 010322Z 03007KT 10SM -RA SCT017 BKN025 OVC110 24/21 A2991
RMK AO2 RAB0257 P0000 T02440211 $





000
SAHW31 PHFO 010303
MTRITO
METAR PHTO 010253Z COR 02008KT 10SM FEW070 25/21 A2990 RMK AO2
SLP124 T02500206 53009 $





000
SAHW31 PHFO 010303
MTRITO
METAR PHTO 010253Z COR 02008KT 10SM FEW070 25/21 A2990 RMK AO2
SLP124 T02500206 53009 $




000
SAHW31 PHFO 010303
MTRITO
METAR PHTO 010253Z COR 02008KT 10SM FEW070 25/21 A2990 RMK AO2
SLP124 T02500206 53009 $




000
SAHW31 PHFO 010303
MTRITO
METAR PHTO 010253Z COR 02008KT 10SM FEW070 25/21 A2990 RMK AO2
SLP124 T02500206 53009 $





000
SAHW31 PHFO 010254
MTRITO
METAR PHTO 010253Z AUTO 02008KT 10SM FEW070 25/21 A2990 RMK AO2
SLP124 T02500206 53009 TSNO $




000
SAHW31 PHFO 010254
MTRITO
METAR PHTO 010253Z AUTO 02008KT 10SM FEW070 25/21 A2990 RMK AO2
SLP124 T02500206 53009 TSNO $





000
SAHW31 PHFO 010254
MTRITO
METAR PHTO 010253Z AUTO 02008KT 10SM FEW070 25/21 A2990 RMK AO2
SLP124 T02500206 53009 TSNO $




000
SAHW31 PHFO 010254
MTRITO
METAR PHTO 010253Z AUTO 02008KT 10SM FEW070 25/21 A2990 RMK AO2
SLP124 T02500206 53009 TSNO $





000
SAHW31 PHFO 010154
MTRITO
METAR PHTO 010153Z 06005KT 10SM FEW028 SCT050 BKN120 OVC200 26/19
A2986 RMK AO2 SLP111 T02610194 $





000
SAHW31 PHFO 010154
MTRITO
METAR PHTO 010153Z 06005KT 10SM FEW028 SCT050 BKN120 OVC200 26/19
A2986 RMK AO2 SLP111 T02610194 $




000
SAHW31 PHFO 010154
MTRITO
METAR PHTO 010153Z 06005KT 10SM FEW028 SCT050 BKN120 OVC200 26/19
A2986 RMK AO2 SLP111 T02610194 $




000
SAHW31 PHFO 010154
MTRITO
METAR PHTO 010153Z 06005KT 10SM FEW028 SCT050 BKN120 OVC200 26/19
A2986 RMK AO2 SLP111 T02610194 $





000
SAHW31 PHFO 010054
MTRITO
METAR PHTO 010053Z 00000KT 10SM FEW029 BKN120 BKN200 27/18 A2986 RMK
AO2 SLP111 T02670183 $





000
SAHW31 PHFO 010054
MTRITO
METAR PHTO 010053Z 00000KT 10SM FEW029 BKN120 BKN200 27/18 A2986 RMK
AO2 SLP111 T02670183 $




000
SAHW31 PHFO 010054
MTRITO
METAR PHTO 010053Z 00000KT 10SM FEW029 BKN120 BKN200 27/18 A2986 RMK
AO2 SLP111 T02670183 $





000
SAHW31 PHFO 010054
MTRITO
METAR PHTO 010053Z 00000KT 10SM FEW029 BKN120 BKN200 27/18 A2986 RMK
AO2 SLP111 T02670183 $




000
SAHW31 PHFO 282354
MTRITO
METAR PHTO 282353Z 09008KT 10SM FEW029 BKN120 BKN200 27/20 A2987 RMK
AO2 SLP114 60009 T02720200 10278 20217 56020 $




000
SAHW31 PHFO 282354
MTRITO
METAR PHTO 282353Z 09008KT 10SM FEW029 BKN120 BKN200 27/20 A2987 RMK
AO2 SLP114 60009 T02720200 10278 20217 56020 $





000
SAHW31 PHFO 282354
MTRITO
METAR PHTO 282353Z 09008KT 10SM FEW029 BKN120 BKN200 27/20 A2987 RMK
AO2 SLP114 60009 T02720200 10278 20217 56020 $




000
SAHW31 PHFO 282354
MTRITO
METAR PHTO 282353Z 09008KT 10SM FEW029 BKN120 BKN200 27/20 A2987 RMK
AO2 SLP114 60009 T02720200 10278 20217 56020 $





000
SAHW31 PHFO 282254
MTRITO
METAR PHTO 282253Z 13007KT 10SM FEW021 FEW028 OVC120 27/20 A2990 RMK
AO2 SLP123 T02670200 $





000
SAHW31 PHFO 282254
MTRITO
METAR PHTO 282253Z 13007KT 10SM FEW021 FEW028 OVC120 27/20 A2990 RMK
AO2 SLP123 T02670200 $




000
SAHW31 PHFO 282210
MTRITO
SPECI PHTO 282209Z 09006KT 10SM SCT021 BKN028 OVC120 26/21 A2992 RMK
AO2 T02610206 $




000
SAHW31 PHFO 282210
MTRITO
SPECI PHTO 282209Z 09006KT 10SM SCT021 BKN028 OVC120 26/21 A2992 RMK
AO2 T02610206 $





000
SAHW31 PHFO 282154
MTRITO
METAR PHTO 282153Z 09006KT 10SM SCT021 SCT040 OVC120 27/21 A2993 RMK
AO2 SLP134 T02670206 $




000
SAHW31 PHFO 282154
MTRITO
METAR PHTO 282153Z 09006KT 10SM SCT021 SCT040 OVC120 27/21 A2993 RMK
AO2 SLP134 T02670206 $





000
SAHW31 PHFO 282154
MTRITO
METAR PHTO 282153Z 09006KT 10SM SCT021 SCT040 OVC120 27/21 A2993 RMK
AO2 SLP134 T02670206 $




000
SAHW31 PHFO 282154
MTRITO
METAR PHTO 282153Z 09006KT 10SM SCT021 SCT040 OVC120 27/21 A2993 RMK
AO2 SLP134 T02670206 $





000
SAHW31 PHFO 282145
MTRITO
SPECI PHTO 282144Z 11006KT 10SM SCT021 BKN035 OVC120 26/21 A2994 RMK
AO2 T02610206 $





000
SAHW31 PHFO 282145
MTRITO
SPECI PHTO 282144Z 11006KT 10SM SCT021 BKN035 OVC120 26/21 A2994 RMK
AO2 T02610206 $




000
SAHW31 PHFO 282145
MTRITO
SPECI PHTO 282144Z 11006KT 10SM SCT021 BKN035 OVC120 26/21 A2994 RMK
AO2 T02610206 $




000
SAHW31 PHFO 282145
MTRITO
SPECI PHTO 282144Z 11006KT 10SM SCT021 BKN035 OVC120 26/21 A2994 RMK
AO2 T02610206 $





000
SAHW31 PHFO 282119
MTRITO
SPECI PHTO 282117Z 11003KT 10SM FEW015 SCT023 BKN028 26/21 A2996 RMK
AO2 T02560206 $




000
SAHW31 PHFO 282119
MTRITO
SPECI PHTO 282117Z 11003KT 10SM FEW015 SCT023 BKN028 26/21 A2996 RMK
AO2 T02560206 $





000
SAHW31 PHFO 282119
MTRITO
SPECI PHTO 282117Z 11003KT 10SM FEW015 SCT023 BKN028 26/21 A2996 RMK
AO2 T02560206 $




000
SAHW31 PHFO 282119
MTRITO
SPECI PHTO 282117Z 11003KT 10SM FEW015 SCT023 BKN028 26/21 A2996 RMK
AO2 T02560206 $





000
SAHW31 PHFO 282054
MTRITO
METAR PHTO 282053Z 13006KT 10SM FEW025 SCT050 OVC120 26/21 A2997 RMK
AO2 RAE09 SLP146 P0001 60009 T02560211 50007 $





000
SAHW31 PHFO 282054
MTRITO
METAR PHTO 282053Z 13006KT 10SM FEW025 SCT050 OVC120 26/21 A2997 RMK
AO2 RAE09 SLP146 P0001 60009 T02560211 50007 $




000
SAHW31 PHFO 282054
MTRITO
METAR PHTO 282053Z 13006KT 10SM FEW025 SCT050 OVC120 26/21 A2997 RMK
AO2 RAE09 SLP146 P0001 60009 T02560211 50007 $




000
SAHW31 PHFO 282054
MTRITO
METAR PHTO 282053Z 13006KT 10SM FEW025 SCT050 OVC120 26/21 A2997 RMK
AO2 RAE09 SLP146 P0001 60009 T02560211 50007 $





000
SAHW31 PHFO 282014
MTRITO
SPECI PHTO 282013Z 00000KT 10SM FEW025 SCT037 24/21 A2998 RMK AO2
RAE09 P0001 T02390211 $




000
SAHW31 PHFO 282014
MTRITO
SPECI PHTO 282013Z 00000KT 10SM FEW025 SCT037 24/21 A2998 RMK AO2
RAE09 P0001 T02390211 $





000
SAHW31 PHFO 282014
MTRITO
SPECI PHTO 282013Z 00000KT 10SM FEW025 SCT037 24/21 A2998 RMK AO2
RAE09 P0001 T02390211 $




000
SAHW31 PHFO 282014
MTRITO
SPECI PHTO 282013Z 00000KT 10SM FEW025 SCT037 24/21 A2998 RMK AO2
RAE09 P0001 T02390211 $





000
SAHW31 PHFO 281954
MTRITO
METAR PHTO 281953Z 19003KT 10SM -RA FEW013 BKN025 OVC041 23/21 A2998
RMK AO2 RAB36 SLP150 P0008 T02280206 $





000
SAHW31 PHFO 281954
MTRITO
METAR PHTO 281953Z 19003KT 10SM -RA FEW013 BKN025 OVC041 23/21 A2998
RMK AO2 RAB36 SLP150 P0008 T02280206 $




000
SAHW31 PHFO 281954
MTRITO
METAR PHTO 281953Z 19003KT 10SM -RA FEW013 BKN025 OVC041 23/21 A2998
RMK AO2 RAB36 SLP150 P0008 T02280206 $





000
SAHW31 PHFO 281954
MTRITO
METAR PHTO 281953Z 19003KT 10SM -RA FEW013 BKN025 OVC041 23/21 A2998
RMK AO2 RAB36 SLP150 P0008 T02280206 $




000
SAHW31 PHFO 281927
MTRITO
SPECI PHTO 281925Z 03003KT 10SM SCT022 BKN028 OVC120 24/20 A2997 RMK
AO2 T02440200





000
SAHW31 PHFO 281927
MTRITO
SPECI PHTO 281925Z 03003KT 10SM SCT022 BKN028 OVC120 24/20 A2997 RMK
AO2 T02440200




000
SAHW31 PHFO 281927
MTRITO
SPECI PHTO 281925Z 03003KT 10SM SCT022 BKN028 OVC120 24/20 A2997 RMK
AO2 T02440200





000
SAHW31 PHFO 281855
MTRITO
METAR PHTO 281853Z 00000KT 10SM SCT055 BKN120 OVC180 24/19 A2996 RMK
AO2 SLP143 T02440189





000
SAHW31 PHFO 281855
MTRITO
METAR PHTO 281853Z 00000KT 10SM SCT055 BKN120 OVC180 24/19 A2996 RMK
AO2 SLP143 T02440189




000
SAHW31 PHFO 281855
MTRITO
METAR PHTO 281853Z 00000KT 10SM SCT055 BKN120 OVC180 24/19 A2996 RMK
AO2 SLP143 T02440189




000
SAHW31 PHFO 281754
MTRITO
METAR PHTO 281753Z 24003KT 10SM BKN050 BKN110 BKN180 22/18 A2995 RMK
AO2 SLP139 60000 T02170183 10217 20200 51013





000
SAHW31 PHFO 281754
MTRITO
METAR PHTO 281753Z 24003KT 10SM BKN050 BKN110 BKN180 22/18 A2995 RMK
AO2 SLP139 60000 T02170183 10217 20200 51013




000
SAHW31 PHFO 281754
MTRITO
METAR PHTO 281753Z 24003KT 10SM BKN050 BKN110 BKN180 22/18 A2995 RMK
AO2 SLP139 60000 T02170183 10217 20200 51013




000
SAHW31 PHFO 281754
MTRITO
METAR PHTO 281753Z 24003KT 10SM BKN050 BKN110 BKN180 22/18 A2995 RMK
AO2 SLP139 60000 T02170183 10217 20200 51013





000
SAHW31 PHFO 281654
MTRITO
METAR PHTO 281653Z 25006KT 10SM FEW047 SCT110 21/17 A2994 RMK AO2
SLP136 T02060172





000
SAHW31 PHFO 281654
MTRITO
METAR PHTO 281653Z 25006KT 10SM FEW047 SCT110 21/17 A2994 RMK AO2
SLP136 T02060172




000
SAHW31 PHFO 281654
MTRITO
METAR PHTO 281653Z 25006KT 10SM FEW047 SCT110 21/17 A2994 RMK AO2
SLP136 T02060172





000
SAHW31 PHFO 281654
MTRITO
METAR PHTO 281653Z 25006KT 10SM FEW047 SCT110 21/17 A2994 RMK AO2
SLP136 T02060172




000
SAHW31 PHFO 281554
MTRITO
METAR PHTO 281553Z 24003KT 10SM BKN110 21/18 A2992 RMK AO2 SLP131
T02060183




000
SAHW31 PHFO 281554
MTRITO
METAR PHTO 281553Z 24003KT 10SM BKN110 21/18 A2992 RMK AO2 SLP131
T02060183





000
SAHW31 PHFO 281454
MTRITO
METAR PHTO 281453Z 16006KT 10SM FEW023 SCT028 OVC110 21/18 A2991 RMK
AO2 RAB18E37 SLP126 P0000 60000 T02060183 55007




000
SAHW31 PHFO 281454
MTRITO
METAR PHTO 281453Z 16006KT 10SM FEW023 SCT028 OVC110 21/18 A2991 RMK
AO2 RAB18E37 SLP126 P0000 60000 T02060183 55007





000
SAHW31 PHFO 281355
MTRITO
METAR PHTO 281353Z 20004KT 10SM BKN110 21/18 A2990 RMK AO2 SLP124
T02110183




000
SAHW31 PHFO 281355
MTRITO
METAR PHTO 281353Z 20004KT 10SM BKN110 21/18 A2990 RMK AO2 SLP124
T02110183




000
SAHW31 PHFO 281355
MTRITO
METAR PHTO 281353Z 20004KT 10SM BKN110 21/18 A2990 RMK AO2 SLP124
T02110183





000
SAHW31 PHFO 281254
MTRITO
METAR PHTO 281253Z 28003KT 10SM FEW031 BKN041 21/19 A2991 RMK AO2
SLP125 T02110189





000
SAHW31 PHFO 281254
MTRITO
METAR PHTO 281253Z 28003KT 10SM FEW031 BKN041 21/19 A2991 RMK AO2
SLP125 T02110189





000
SAHW31 PHFO 281154
MTRITO
METAR PHTO 281153Z 27003KT 10SM FEW021 FEW029 21/19 A2993 RMK AO2
SLP133 T02110194 10233 20206 58013




000
SAHW31 PHFO 281154
MTRITO
METAR PHTO 281153Z 27003KT 10SM FEW021 FEW029 21/19 A2993 RMK AO2
SLP133 T02110194 10233 20206 58013




000
SAHW31 PHFO 281154
MTRITO
METAR PHTO 281153Z 27003KT 10SM FEW021 FEW029 21/19 A2993 RMK AO2
SLP133 T02110194 10233 20206 58013





000
SAHW31 PHFO 281154
MTRITO
METAR PHTO 281153Z 27003KT 10SM FEW021 FEW029 21/19 A2993 RMK AO2
SLP133 T02110194 10233 20206 58013





000
SAHW31 PHFO 281120
MTRITO
SPECI PHTO 281118Z 18004KT 10SM SCT021 22/19 A2994 RMK AO2 T02170194




000
SAHW31 PHFO 281120
MTRITO
SPECI PHTO 281118Z 18004KT 10SM SCT021 22/19 A2994 RMK AO2 T02170194





000
SAHW31 PHFO 281054
MTRITO
METAR PHTO 281053Z 00000KT 10SM BKN020 BKN030 BKN035 22/20 A2995 RMK
AO2 SLP139 T02170200




000
SAHW31 PHFO 281054
MTRITO
METAR PHTO 281053Z 00000KT 10SM BKN020 BKN030 BKN035 22/20 A2995 RMK
AO2 SLP139 T02170200




000
SAHW31 PHFO 281054
MTRITO
METAR PHTO 281053Z 00000KT 10SM BKN020 BKN030 BKN035 22/20 A2995 RMK
AO2 SLP139 T02170200





000
SAHW31 PHFO 281054
MTRITO
METAR PHTO 281053Z 00000KT 10SM BKN020 BKN030 BKN035 22/20 A2995 RMK
AO2 SLP139 T02170200





000
SAHW31 PHFO 281039
MTRITO
SPECI PHTO 281038Z 00000KT 10SM SCT020 SCT032 22/20 A2994 RMK AO2
T02220200




000
SAHW31 PHFO 281039
MTRITO
SPECI PHTO 281038Z 00000KT 10SM SCT020 SCT032 22/20 A2994 RMK AO2
T02220200





000
SAHW31 PHFO 281039
MTRITO
SPECI PHTO 281038Z 00000KT 10SM SCT020 SCT032 22/20 A2994 RMK AO2
T02220200





000
SAHW31 PHFO 281039
MTRITO
SPECI PHTO 281038Z 00000KT 10SM SCT020 SCT032 22/20 A2994 RMK AO2
T02220200




000
SAHW31 PHFO 281009
MTRITO
SPECI PHTO 281008Z 24003KT 10SM SCT019 BKN027 22/20 A2996 RMK AO2
T02220200




000
SAHW31 PHFO 281009
MTRITO
SPECI PHTO 281008Z 24003KT 10SM SCT019 BKN027 22/20 A2996 RMK AO2
T02220200





000
SAHW31 PHFO 280954
MTRITO
METAR PHTO 280953Z AUTO 25004KT 10SM FEW019 SCT026 22/21 A2996 RMK
AO2 SLP145 T02220206 402940183 TSNO




000
SAHW31 PHFO 280954
MTRITO
METAR PHTO 280953Z AUTO 25004KT 10SM FEW019 SCT026 22/21 A2996 RMK
AO2 SLP145 T02220206 402940183 TSNO





000
SAHW31 PHFO 280915
MTRITO
SPECI PHTO 280914Z AUTO 00000KT 10SM BKN019 23/21 A2997 RMK AO2
T02280206 TSNO




000
SAHW31 PHFO 280915
MTRITO
SPECI PHTO 280914Z AUTO 00000KT 10SM BKN019 23/21 A2997 RMK AO2
T02280206 TSNO





000
SAHW31 PHFO 280915
MTRITO
SPECI PHTO 280914Z AUTO 00000KT 10SM BKN019 23/21 A2997 RMK AO2
T02280206 TSNO




000
SAHW31 PHFO 280915
MTRITO
SPECI PHTO 280914Z AUTO 00000KT 10SM BKN019 23/21 A2997 RMK AO2
T02280206 TSNO





000
SAHW31 PHFO 280854
MTRITO
METAR PHTO 280853Z AUTO 23003KT 10SM CLR 23/20 A2997 RMK AO2 SLP146
T02280200 50009 TSNO




000
SAHW31 PHFO 280854
MTRITO
METAR PHTO 280853Z AUTO 23003KT 10SM CLR 23/20 A2997 RMK AO2 SLP146
T02280200 50009 TSNO





000
SAHW31 PHFO 280754
MTRITO
METAR PHTO 280753Z 22004KT 10SM FEW018 23/21 A2997 RMK AO2 SLP147
OCNL LTGIC DSNT N T02330206





000
SAHW31 PHFO 280656
MTRITO
SPECI PHTO 280655Z 23003KT 10SM FEW017 BKN070 23/21 A2997 RMK AO2
OCNL LTGIC DSNT N T02330206




000
SAHW31 PHFO 280656
MTRITO
SPECI PHTO 280655Z 23003KT 10SM FEW017 BKN070 23/21 A2997 RMK AO2
OCNL LTGIC DSNT N T02330206




000
SAHW31 PHFO 280656
MTRITO
SPECI PHTO 280655Z 23003KT 10SM FEW017 BKN070 23/21 A2997 RMK AO2
OCNL LTGIC DSNT N T02330206





000
SAHW31 PHFO 280656
MTRITO
SPECI PHTO 280655Z 23003KT 10SM FEW017 BKN070 23/21 A2997 RMK AO2
OCNL LTGIC DSNT N T02330206





000
SAHW31 PHFO 280654
MTRITO
METAR PHTO 280653Z 23003KT 10SM FEW017 BKN070 23/21 A2997 RMK AO2
SLP146 CONT LTGIC DSNT N T02330206




000
SAHW31 PHFO 280654
MTRITO
METAR PHTO 280653Z 23003KT 10SM FEW017 BKN070 23/21 A2997 RMK AO2
SLP146 CONT LTGIC DSNT N T02330206




000
SAHW31 PHFO 280654
MTRITO
METAR PHTO 280653Z 23003KT 10SM FEW017 BKN070 23/21 A2997 RMK AO2
SLP146 CONT LTGIC DSNT N T02330206





000
SAHW31 PHFO 280654
MTRITO
METAR PHTO 280653Z 23003KT 10SM FEW017 BKN070 23/21 A2997 RMK AO2
SLP146 CONT LTGIC DSNT N T02330206





000
SAHW31 PHFO 280637
MTRITO
SPECI PHTO 280636Z 00000KT 10SM CLR 23/21 A2996 RMK AO2 CONT LTGIC
DSNT N T02330206





000
SAHW31 PHFO 280637
MTRITO
SPECI PHTO 280636Z 00000KT 10SM CLR 23/21 A2996 RMK AO2 CONT LTGIC
DSNT N T02330206




000
SAHW31 PHFO 280637
MTRITO
SPECI PHTO 280636Z 00000KT 10SM CLR 23/21 A2996 RMK AO2 CONT LTGIC
DSNT N T02330206




000
SAHW31 PHFO 280637
MTRITO
SPECI PHTO 280636Z 00000KT 10SM CLR 23/21 A2996 RMK AO2 CONT LTGIC
DSNT N T02330206





000
SAHW31 PHFO 280625
MTRITO
SPECI PHTO 280624Z 00000KT 10SM SCT028 24/21 A2995 RMK AO2 FREQ
LTGIC DSNT N T02390206




000
SAHW31 PHFO 280625
MTRITO
SPECI PHTO 280624Z 00000KT 10SM SCT028 24/21 A2995 RMK AO2 FREQ
LTGIC DSNT N T02390206




000
SAHW31 PHFO 280625
MTRITO
SPECI PHTO 280624Z 00000KT 10SM SCT028 24/21 A2995 RMK AO2 FREQ
LTGIC DSNT N T02390206





000
SAHW31 PHFO 280616
MTRITO
SPECI PHTO 280615Z 00000KT 10SM BKN026 24/21 A2995 RMK AO2 FREQ
LTGIC DSNT N T02390206





000
SAHW31 PHFO 280616
MTRITO
SPECI PHTO 280615Z 00000KT 10SM BKN026 24/21 A2995 RMK AO2 FREQ
LTGIC DSNT N T02390206




000
SAHW31 PHFO 280616
MTRITO
SPECI PHTO 280615Z 00000KT 10SM BKN026 24/21 A2995 RMK AO2 FREQ
LTGIC DSNT N T02390206





000
SAHW31 PHFO 280616
MTRITO
SPECI PHTO 280615Z 00000KT 10SM BKN026 24/21 A2995 RMK AO2 FREQ
LTGIC DSNT N T02390206




000
SAHW31 PHFO 280554
MTRITO
METAR PHTO 280553Z 00000KT 10SM BKN020 BKN026 24/21 A2994 RMK AO2
SLP137 OCNL LTGIC DSNT N T02390206 10283 20239 51012





000
SAHW31 PHFO 280554
MTRITO
METAR PHTO 280553Z 00000KT 10SM BKN020 BKN026 24/21 A2994 RMK AO2
SLP137 OCNL LTGIC DSNT N T02390206 10283 20239 51012




000
SAHW31 PHFO 280554
MTRITO
METAR PHTO 280553Z 00000KT 10SM BKN020 BKN026 24/21 A2994 RMK AO2
SLP137 OCNL LTGIC DSNT N T02390206 10283 20239 51012





000
SAHW31 PHFO 280554
MTRITO
METAR PHTO 280553Z 00000KT 10SM BKN020 BKN026 24/21 A2994 RMK AO2
SLP137 OCNL LTGIC DSNT N T02390206 10283 20239 51012




000
SAHW31 PHFO 280549
MTRITO
SPECI PHTO 280548Z 00000KT 10SM BKN020 BKN026 24/21 A2994 RMK AO2
OCNL LTGIC DSNT N




000
SAHW31 PHFO 280549
MTRITO
SPECI PHTO 280548Z 00000KT 10SM BKN020 BKN026 24/21 A2994 RMK AO2
OCNL LTGIC DSNT N





000
SAHW31 PHFO 280549
MTRITO
SPECI PHTO 280548Z 00000KT 10SM BKN020 BKN026 24/21 A2994 RMK AO2
OCNL LTGIC DSNT N




000
SAHW31 PHFO 280537
MTRITO
SPECI PHTO 280535Z 00000KT 10SM SCT018 24/21 A2993 RMK AO2 OCNL
LTGIC DSNT N T02390206





000
SAHW31 PHFO 280537
MTRITO
SPECI PHTO 280535Z 00000KT 10SM SCT018 24/21 A2993 RMK AO2 OCNL
LTGIC DSNT N T02390206





000
SAHW31 PHFO 280537
MTRITO
SPECI PHTO 280535Z 00000KT 10SM SCT018 24/21 A2993 RMK AO2 OCNL
LTGIC DSNT N T02390206




000
SAHW31 PHFO 280454
MTRITO
METAR PHTO 280453Z 14003KT 10SM FEW075 24/21 A2992 RMK AO2 SLP130
T02390206





000
SAHW31 PHFO 280454
MTRITO
METAR PHTO 280453Z 14003KT 10SM FEW075 24/21 A2992 RMK AO2 SLP130
T02390206




000
SAHW31 PHFO 280454
MTRITO
METAR PHTO 280453Z 14003KT 10SM FEW075 24/21 A2992 RMK AO2 SLP130
T02390206





000
SAHW31 PHFO 280354
MTRITO
METAR PHTO 280353Z 12008KT 10SM OVC070 25/21 A2991 RMK AO2 SLP125
T02500206





000
SAHW31 PHFO 280354
MTRITO
METAR PHTO 280353Z 12008KT 10SM OVC070 25/21 A2991 RMK AO2 SLP125
T02500206




    US Dept of Commerce
    National Oceanic and Atmospheric Administration
    National Weather Service
    1325 East West Highway
    Silver Spring, MD 20910
    Page Author: NWS Internet Services Team
Disclaimer
Information Quality
Credits
Glossary
Privacy Policy
Freedom of Information Act (FOIA)
About Us
Career Opportunities